This demonstration page uses our WeatherBlox Daily Observations layout. Learn more.

Left ArrowRight Arrow

Hourly Observations for December 2, 2019

Temp ( °F °C ) Dew Point ( °F °C ) Humidity (%) Winds ( mph kmh ) Pressure ( in mb ) Visibility ( mi km ) Precip ( " mm )
12:52 am 00:52 Clear 22 -5.6 16 -8.9 78 78 NW 13 20 30.22 1023 10 16 0.00 0.00
1:52 am 01:52 Clear 21 -6.1 16 -8.9 81 81 NNW 10 17 30.24 1024 10 16 0.00 0.00
2:52 am 02:52 Clear 21 -6.1 15 -9.4 78 78 NNW 10 17 30.23 1024 10 16 0.00 0.00
3:52 am 03:52 Clear 20 -6.7 15 -9.4 81 81 NNW 10 17 30.23 1024 10 16 0.00 0.00
4:52 am 04:52 Clear 20 -6.7 15 -9.4 81 81 NNW 12 19 30.24 1024 10 16 0.00 0.00
5:52 am 05:52 Clear 19 -7.2 15 -9.4 84 84 NW 8 13 30.26 1025 10 16 0.00 0.00
6:52 am 06:52 Clear 18 -7.8 14 -10 84 84 WSW 7 11 30.28 1025 10 16 0.00 0.00
7:52 am 07:52 Partly Cloudy 19 -7.2 13 -10.6 77 77 E 6 9 30.24 1024 10 16 0.00 0.00
8:52 am 08:52 Partly Cloudy 21 -6.1 15 -9.4 78 78 Calm 30.25 1024 10 16 0.00 0.00
9:52 am 09:52 Partly Cloudy 25 -3.9 16 -8.9 69 69 Calm 30.27 1025 10 16 0.00 0.00
10:52 am 10:52 Partly Cloudy 28 -2.2 16 -8.9 60 60 VRB 3 6 30.24 1024 10 16 0.00 0.00
11:52 am 11:52 Partly Cloudy 32 0 16 -8.9 52 52 S 6 9 30.20 1023 10 16 0.00 0.00
12:52 pm 12:52 Partly Cloudy 36 2.2 16 -8.9 44 44 SSE 7 11 30.17 1022 10 16 0.00 0.00
1:52 pm 13:52 Partly Cloudy 38 3.3 15 -9.4 39 39 S 9 15 30.12 1020 10 16 0.00 0.00
2:52 pm 14:52 Partly Cloudy 40 4.4 17 -8.3 40 40 S 10 17 30.09 1019 10 16 0.00 0.00
3:52 pm 15:52 Partly Cloudy 40 4.4 16 -8.9 38 38 S 15 24 30.07 1018 10 16 0.00 0.00
4:52 pm 16:52 Partly Cloudy 36 2.2 21 -6.1 55 55 SSE 10 17 30.06 1018 10 16 0.00 0.00
5:52 pm 17:52 Partly Cloudy 35 1.7 21 -6.1 57 57 S 10 17 30.05 1018 10 16 0.00 0.00
6:52 pm 18:52 Mostly Cloudy 33 0.6 22 -5.6 64 64 SSE 13 20 30.03 1017 10 16 0.00 0.00
7:52 pm 19:52 Cloudy 32 0 22 -5.6 66 66 SSE 9 15 30.02 1017 10 16 0.00 0.00
8:52 pm 20:52 Cloudy 33 0.6 22 -5.6 64 64 SE 9 15 30.01 1016 10 16 0.00 0.00
9:52 pm 21:52 Cloudy 34 1.1 22 -5.6 61 61 SSE 9 15 29.98 1015 10 16 0.00 0.00
10:52 pm 22:52 Cloudy 39 3.9 20 -6.7 46 46 SSW 9 15 29.95 1014 10 16 0.00 0.00
11:52 pm 23:52 Cloudy 37 2.8 21 -6.1 52 52 SSE 5 7 29.95 1014 10 16 0.00 0.00

Powered by AerisWeather